Home   Weather   Xi'an   Past weeks
Flag for China

Past Weather in Xi'an, Shaanxi, China — Yesterday and Last 2 Weeks

Now
68 °F

Light rain. Fog.


Feels Like: 68 °F
Forecast: 69 / 67 °F
Wind: 6 mph from Northeast

Location: Xian/Xianyang

Current Time: Jun 20, 2019 at 7:26:42 pm

Latest Report: Jun 20, 2019 at 7:00 pm


Visibility: 3 mi

Pressure: 29.71 "Hg

Humidity: 100%

Dew Point: 68 °F

Location of Xi'anLocation

Past Weather in Xi'an — Graph

°F

Xi'an Temperature Yesterday

Maximum temperature yesterday: 82 °F (at 12:00 pm)
Minimum temperature yesterday: 70 °F (at 10:00 pm)
Average temperature yesterday: 76 °F

High & Low Weather Summary for the Past Weeks

 TemperatureHumidityPressure
High97 °F (Jun 10, 2:00 pm)100% (Jun 5, 10:00 pm)29.86 "Hg (Jun 5, 10:00 pm)
Low59 °F (Jun 6, 6:00 am)21% (Jun 14, 7:00 pm)29.56 "Hg (Jun 14, 5:00 pm)
Average77 °F65%29.72 "Hg
* Reported Jun 5 6:00 pm — Jun 20 6:00 pm, Xi'an. Weather by CustomWeather, © 2019

Note: Actual official high and low records may vary slightly from our data, if they occured in-between our weather recording intervals... More about our weather records

Advertising

Xi'an Weather History for the Previous 24 Hours

Scroll right to see more
 ConditionsComfort  
Time TempWeatherWind HumidityBarometerVisibility
6:00 pm
Thu, Jun 20
68 °FLight rain. Fog.8 mph100%29.71 "Hg3 mi
5:00 pm70 °FLight rain. More clouds than sun.8 mph94%29.71 "Hg4 mi
4:00 pm70 °FLight rain. More clouds than sun.10 mph100%29.71 "Hg4 mi
3:00 pm68 °FLight rain. More clouds than sun.15 mph100%29.68 "Hg4 mi
2:00 pm68 °FLight rain. More clouds than sun.8 mph100%29.71 "Hg4 mi
1:00 pm68 °FRain. Fog.10 mph100%29.71 "Hg2 mi
12:00 pm68 °FRain. Fog.10 mph100%29.71 "Hg2 mi
11:00 am68 °FRain. Fog.10 mph100%29.68 "Hg2 mi
10:00 am68 °FLight rain. Fog.10 mph100%29.68 "Hg2 mi
9:00 am68 °FLight rain. Fog.10 mph100%29.68 "Hg2 mi
8:00 am68 °FFog.10 mph100%29.68 "Hg3 mi
7:00 am68 °FLight rain. Fog.10 mph100%29.68 "Hg2 mi
6:00 am68 °FFog.8 mph100%29.68 "Hg2 mi
5:00 am70 °FFog.8 mph94%29.65 "Hg2 mi
4:00 am68 °FLight rain. Fog.8 mph100%29.65 "Hg2 mi
3:00 am68 °FFog.6 mph100%29.65 "Hg2 mi
2:00 am68 °FFog.8 mph100%29.68 "Hg2 mi
1:00 am70 °FFog.6 mph94%29.68 "Hg3 mi
12:00 am70 °FFog.8 mph100%29.71 "Hg3 mi
11:00 pm
Wed, Jun 19
70 °FFog.10 mph100%29.71 "Hg2 mi
10:00 pm70 °FFog.6 mph100%29.68 "Hg2 mi
9:00 pm72 °FFog.6 mph94%29.68 "Hg2 mi
8:00 pm72 °FFog.6 mph94%29.68 "Hg2 mi
7:00 pm72 °FLight rain. Fog.6 mph100%29.65 "Hg2 mi
Weather by CustomWeather, © 2019

See weather overview